Regional Weather Roundup
Issued by NWS Green Bay, WI

Home | Current Version | Previous Version | Text Only | Print | Product List | Glossary On
Versions: 1 2 3 4 5 6 7 8 9 10 11 12 13 14 15 16 17 18 19 20 21 22 23 24 25 26 27 28 29 30 31 32 33 34 35 36 37 38 39 40 41 42 43 44 45 46 47 48 49 50
000
ASUS43 KGRB 161200
RWRGRB

NORTH-CENTRAL AND NORTHEAST WISCONSIN REGIONAL WEATHER ROUNDUP
NATIONAL WEATHER SERVICE GREEN BAY WI
600 AM CST SAT DEC 16 2017

WIZ005-009-010>012-018-019-161300-
NORTH CENTRAL WISCONSIN

CITY           SKY/WX    TMP DP  RH WIND       PRES   REMARKS
IRONWOOD       CLOUDY     8   6  92 E6        29.85R WCI  -2
MANITOWISH WTR NOT AVBL
ARBOR VITAE    NOT AVBL
EAGLE RIVER    NOT AVBL
LAND O LAKES   NOT AVBL
RHINELANDER    CLOUDY     7   5  91 E5        29.81R WCI  -2
PHILLIPS       NOT AVBL
ANTIGO         NOT AVBL
TOMAHAWK       NOT AVBL
MERRILL        NOT AVBL
$$

WIZ013-073-161300-
NORTHEAST WISCONSIN

CITY           SKY/WX    TMP DP  RH WIND       PRES   REMARKS
IRON MOUNTAIN  CLOUDY     5   1  83 CALM      29.86R
MARINETTE      CLOUDY    11   5  77 N5        29.92R WCI   3
$$

WIZ017-030-035>037-045-161300-
CENTRAL WISCONSIN

CITY           SKY/WX    TMP DP  RH WIND       PRES   REMARKS
MEDFORD        NOT AVBL
WAUSAU         CLOUDY    14   9  80 E8        29.82R WCI   3
MOSINEE        CLOUDY    14  10  85 E10G17    29.83R WCI   1
MARSHFIELD     CLOUDY    17  13  84 E15       29.77R WCI   2
WISC RAPIDS    CLOUDY    17  12  80 E15       29.82R WCI   2
STEVENS POINT  NOT AVBL
WAUPACA        NOT AVBL
SHAWANO        NOT AVBL
CLINTONVILLE   NOT AVBL
WAUTOMA        CLOUDY    18  14  84 NE10      29.84R WCI   6
$$

WIZ038-039-048-051-161300-
FOX VALLEY

CITY           SKY/WX    TMP DP  RH WIND       PRES   REMARKS
NWS GREEN BAY  CLOUDY    18  14  84 NE7       29.88R WCI   9
APPLETON       CLOUDY    18  12  79 E12G17    29.83R WCI   5
OSHKOSH        CLOUDY    19  15  84 NE12      29.84R WCI   7
FOND DU LAC    CLOUDY    22  17  81 NE9       29.83R
$$

WIZ022-050-052-161300-
EAST CENTRAL WISCONSIN

CITY           SKY/WX    TMP DP  RH WIND       PRES   REMARKS
EPHRAIM        NOT AVBL
WASHINGTON ISL NOT AVBL
STURGEON BAY   CLOUDY    18  10  71 MISG      29.90R
MANITOWOC      FLURRIES  18  16  92 N5        29.89R
SHEBOYGAN      LGT SNOW  21  20  96 NE12      29.85R FOG     WCI   9
$$

LMZ563-521-522-541>543-161300-
LAKESHORE

STATION/POSITION TIME  TEMP    WIND        PRES    VSBY  WAVE
                       AIR SEA DIR/SP/G                  HT/PER
                 (UTC) (F)     (DEG/KT/KT) (MB)    (MI)  (FT/S)
SHEBOYGAN LKSHOR 1100   27      40/ 15/ 16 1011.0F
KEWAUNEE LKSHORE 1130   18     350/  5/  7 1011.3R
NORTHPORT PIER   1140   20      40/  5/  8 1012.5R
MENOMINEE LKSHOR 1130   19     360/ 15/ 17 1011.8R
$$



USA.gov is the U.S. government's official web portal to all federal, state and local government web resources and services.